Regional Weather Roundup
Issued by NWS Sioux Falls, SD

Home | Current Version | Previous Version | Text Only | Print | Product List | Glossary Off
Versions: 1 2 3 4 5 6 7 8 9 10 11 12 13 14 15 16 17 18 19 20 21 22 23 24 25 26 27 28 29 30 31 32 33 34 35 36 37 38 39 40 41 42 43 44 45 46 47 48 49 50

000
ASUS43 KFSD 231010
RWRFSD

WEATHER ROUNDUP FOR SE SOUTH DAKOTA/SW MINNESOTA/NW IOWA
NATIONAL WEATHER SERVICE SIOUX FALLS SD
500 AM CDT WED MAY 23 2018

NOTE: "FAIR" INDICATES FEW OR NO CLOUDS BELOW 12,000 FEET WITH NO
SIGNIFICANT WEATHER AND OR OBSTRUCTIONS TO VISIBILITY.


SDZ038>040-050-052>070-231100-
SOUTHEAST SOUTH DAKOTA

CITY           SKY/WX    TMP DP  RH WIND       PRES   REMARKS
BROOKINGS      CLOUDY    65  62  90 SE18      29.99F
CHAMBERLAIN    MOCLDY    66  66 100 E8        29.89F
HURON          CLOUDY    65  63  93 E7        29.94F
MADISON        FAIR      63  63 100 SE12      29.99S
MITCHELL       CLOUDY    63  62  97 N6        29.94R FOG
SIOUX FALLS    PTCLDY    64  62  93 E6        29.99R
WINNER         TSTM      67  62  84 NE6       29.88S
YANKTON        PTCLDY    66  63  90 E7        29.96R
$$

MNZ071-072-080-081-089-090-097-098-231100-
SOUTHWEST MINNESOTA

CITY           SKY/WX    TMP DP  RH WIND       PRES   REMARKS
FAIRMONT       LGT RAIN  62  60  93 SE7       30.08S
JACKSON        CLOUDY    59  59 100 E12       30.09R
LUVERNE        PTCLDY    64  59  82 SE13G18   30.03R
MARSHALL       TSTM      64  63  94 SE14      30.02S
MONTEVIDEO     MOCLDY    63  57  82 SE6       30.03R
PIPESTONE      MOCLDY    64  63  94 SE13      30.02S
REDWOOD FALLS  CLOUDY    64  61  90 E6        30.02R
TRACY          CLOUDY    66  64  93 S3        30.03S THUNDER
WINDOM         CLOUDY    63  46  55 E8        30.05F
WORTHINGTON    CLOUDY    63  59  87 SE9       30.07R
$$

IAZ001>003-012>014-020>022-031-032-NEZ013-014-SDZ071-231100-
NORTHWEST IOWA

CITY           SKY/WX    TMP DP  RH WIND       PRES   REMARKS
CHEROKEE       CLEAR     64  63  97 CALM      30.04R
DENISON        CLEAR     68  63  83 S8        30.05R
ESTHERVILLE    HVY RAIN  61  59  93 E12       30.08R
ORANGE CITY    CLEAR     66  64  94 E6        30.03R
SHELDON        MOCLDY    64  64 100 E15       30.02R
SIOUX CITY     CLEAR     63  61  93 SE9       29.99R
SPENCER        CLOUDY    66  61  84 E10       30.07R
STORM LAKE     CLEAR     63  63 100 SE7       30.06R
$$

ABBREVIATIONS USED IN REMARKS
   TC - TEMPERATURE IN CELSIUS
  WCI - WIND CHILL INDEX
   HX - HEAT INDEX
  VSB - VISIBILITY





USA.gov is the U.S. government's official web portal to all federal, state and local government web resources and services.